Buckeye, AZ

4:18 PM MST on October 21, 2019 (GMT -0700)
Buckeye Municipal

Weather History for KBXK - May, 2019

Change the Weather History Date:

Monday, May 13, 2019

  Actual Average (KGYR) Record (KGYR)
Temperature  
Mean Temperature 75 °F -  
Max Temperature 91 °F 92 °F 102 °F (1999)
Min Temperature 59 °F 63 °F 51 °F (2012)
Cooling Degree Days 10    
Growing Degree Days 25 (Base 50)    
Moisture  
Dew Point 47 °F    
Average Humidity 37    
Maximum Humidity 60    
Minimum Humidity 16    
Precipitation  
Precipitation 0.00 in - - ()
Sea Level Pressure  
Sea Level Pressure 29.91 in    
Wind  
Wind Speed 6 mph (South)    
Max Wind Speed 10 mph    
Max Gust Speed 16 mph    
Visibility 9 miles    
Events      
Averages and records for this station are not official NWS values.
T = Trace of Precipitation, MM = Missing Value Source: NWS Daily Summary

Daily Weather History Graph

Daily Weather History Graph

Search for Another Location

Airport or City:

Astronomy

May. 13, 2019 Rise Set
Actual Time 5:32 AM MST 7:22 PM MST
Civil Twilight 5:04 AM MST 7:49 PM MST
Nautical Twilight 4:31 AM MST 8:22 PM MST
Astronomical Twilight 3:56 AM MST 8:58 PM MST
Moon 2:00 PM MST (5/13) 2:29 AM MST (5/13)
Length of Visible Light 14h 45m
Length of Day
13h 50m
Waxing Gibbous, 70% of the Moon is Illuminated
May 13
Waxing Gibbous
May 18
Full
May 26
Last Quarter
Jun 3
New
Jun 9
First Quarter

Hourly Weather History & Observations

Time (MST) Temp. Dew Point Humidity Pressure Visibility Wind Dir Wind Speed Gust Speed Precip Events Conditions
12:15 AM 69.8 °F 46.4 °F 43% 29.91 in 10.0 mi East 8.1 mph - N/A   Clear
12:35 AM 69.8 °F 46.4 °F 43% 29.91 in 10.0 mi East 8.1 mph - N/A   Clear
12:55 AM 68.0 °F 46.4 °F 46% 29.92 in 10.0 mi East 8.1 mph - N/A   Clear
1:15 AM 68.0 °F 46.4 °F 46% 29.91 in 10.0 mi East 8.1 mph - N/A   Clear
1:35 AM 68.0 °F 46.4 °F 46% 29.91 in 10.0 mi East 6.9 mph - N/A   Clear
1:55 AM 68.0 °F 46.4 °F 46% 29.92 in 10.0 mi East 5.8 mph - N/A   Mostly Cloudy
2:15 AM 68.0 °F 46.4 °F 46% 29.92 in 10.0 mi East 6.9 mph - N/A   Scattered Clouds
2:35 AM 66.2 °F 46.4 °F 49% 29.92 in 10.0 mi East 5.8 mph - N/A   Mostly Cloudy
2:55 AM 68.0 °F 48.2 °F 49% 29.92 in 10.0 mi East 6.9 mph - N/A   Scattered Clouds
3:15 AM 66.2 °F 48.2 °F 52% 29.93 in 10.0 mi East 8.1 mph - N/A   Clear
3:35 AM 68.0 °F 48.2 °F 49% 29.93 in 10.0 mi East 8.1 mph - N/A   Clear
3:55 AM 68.0 °F 48.2 °F 49% 29.94 in 10.0 mi East 6.9 mph - N/A   Partly Cloudy
4:15 AM 66.2 °F 48.2 °F 52% 29.95 in 10.0 mi East 4.6 mph - N/A   Clear
4:35 AM 62.6 °F 46.4 °F 55% 29.95 in 10.0 mi Calm Calm - N/A   Partly Cloudy
4:55 AM 64.4 °F 46.4 °F 52% 29.94 in 10.0 mi NNE 3.5 mph - N/A   Clear
5:15 AM 60.8 °F 46.4 °F 59% 29.95 in 7.0 mi Calm Calm - N/A   Clear
5:35 AM 59.0 °F 44.6 °F 59% 29.96 in 6.0 mi WNW 4.6 mph - N/A   Clear
5:55 AM 59.0 °F 42.8 °F 55% 29.97 in 8.0 mi Calm Calm - N/A   Clear
6:15 AM 60.8 °F 44.6 °F 55% 29.98 in 8.0 mi Calm Calm - N/A   Clear
6:35 AM 64.4 °F 44.6 °F 49% 29.98 in 6.0 mi Calm Calm - N/A   Clear
6:55 AM 66.2 °F 48.2 °F 52% 29.99 in 8.0 mi Calm Calm - N/A   Clear
7:15 AM 66.2 °F 50.0 °F 56% 29.99 in 10.0 mi Calm Calm - N/A   Clear
7:35 AM 68.0 °F 53.6 °F 60% 29.99 in 10.0 mi SE 4.6 mph - N/A   Clear
7:55 AM 71.6 °F 53.6 °F 53% 29.99 in 10.0 mi SE 3.5 mph - N/A   Clear
8:15 AM 73.4 °F 50.0 °F 44% 29.99 in 10.0 mi East 10.4 mph - N/A   Clear
8:35 AM 71.6 °F 51.8 °F 50% 29.99 in 10.0 mi SE 10.4 mph - N/A   Clear
8:55 AM 73.4 °F 50.0 °F 44% 29.99 in 10.0 mi ESE 8.1 mph - N/A   Clear
9:15 AM 73.4 °F 50.0 °F 44% 29.99 in 10.0 mi SE 8.1 mph - N/A   Clear
9:35 AM 75.2 °F 50.0 °F 41% 29.98 in 10.0 mi ESE 5.8 mph - N/A   Clear
9:55 AM 75.2 °F 50.0 °F 41% 29.98 in 10.0 mi ESE 5.8 mph - N/A   Clear
10:15 AM 77.0 °F 50.0 °F 39% 29.97 in 10.0 mi ESE 4.6 mph - N/A   Clear
10:35 AM 77.0 °F 50.0 °F 39% 29.98 in 10.0 mi SSE 4.6 mph - N/A   Clear
10:55 AM 78.8 °F 50.0 °F 36% 29.97 in 10.0 mi South 5.8 mph - N/A   Clear
11:15 AM 78.8 °F 50.0 °F 36% 29.97 in 10.0 mi SSE 3.5 mph - N/A   Clear
11:35 AM 80.6 °F 48.2 °F 32% 29.96 in 10.0 mi ESE 4.6 mph - N/A   Clear
11:55 AM 80.6 °F 48.2 °F 32% 29.96 in 10.0 mi South 5.8 mph - N/A   Clear
12:15 PM 82.4 °F 50.0 °F 32% 29.95 in 10.0 mi East 4.6 mph - N/A   Clear
12:35 PM 82.4 °F 48.2 °F 30% 29.93 in 9.0 mi SW 4.6 mph - N/A   Clear
12:55 PM 84.2 °F 48.2 °F 29% 29.93 in 10.0 mi East 3.5 mph - N/A   Clear
1:15 PM 84.2 °F 48.2 °F 29% 29.92 in 10.0 mi South 5.8 mph - N/A   Clear
1:35 PM 84.2 °F 48.2 °F 29% 29.91 in 9.0 mi South 5.8 mph - N/A   Clear
1:55 PM 86.0 °F 48.2 °F 27% 29.90 in 10.0 mi South 4.6 mph - N/A   Clear
2:15 PM 86.0 °F 46.4 °F 25% 29.89 in 10.0 mi SSW 6.9 mph - N/A   Clear
2:35 PM 89.6 °F 46.4 °F 22% 29.88 in 10.0 mi WNW 6.9 mph - N/A   Clear
2:55 PM 89.6 °F 44.6 °F 21% 29.87 in 10.0 mi South 5.8 mph - N/A   Clear
3:15 PM 91.4 °F 44.6 °F 20% 29.86 in 10.0 mi SSW 8.1 mph - N/A   Clear
3:35 PM 89.6 °F 44.6 °F 21% 29.85 in 10.0 mi WSW 3.5 mph - N/A   Clear
3:55 PM 91.4 °F 44.6 °F 20% 29.84 in 10.0 mi NW 3.5 mph - N/A   Clear
4:15 PM 91.4 °F 44.6 °F 20% 29.84 in 10.0 mi SW 8.1 mph - N/A   Clear
4:35 PM 91.4 °F 44.6 °F 20% 29.83 in 10.0 mi WSW 8.1 mph - N/A   Clear
4:55 PM 91.4 °F 42.8 °F 18% 29.82 in 10.0 mi WSW 9.2 mph 16.1 mph N/A   Clear
5:15 PM 91.4 °F 42.8 °F 18% 29.82 in 10.0 mi WSW 9.2 mph - N/A   Clear
5:35 PM 91.4 °F 41.0 °F 17% 29.82 in 10.0 mi WSW 6.9 mph - N/A   Clear
5:55 PM 91.4 °F 41.0 °F 17% 29.82 in 10.0 mi West 5.8 mph - N/A   Clear
6:15 PM 91.4 °F 39.2 °F 16% 29.82 in 10.0 mi West 8.1 mph - N/A   Clear
6:35 PM 91.4 °F 41.0 °F 17% 29.82 in 10.0 mi WSW 4.6 mph - N/A   Clear
6:55 PM 87.8 °F 42.8 °F 21% 29.82 in 10.0 mi SW 6.9 mph - N/A   Clear
7:15 PM 86.0 °F 44.6 °F 23% 29.83 in 8.0 mi SW 4.6 mph - N/A   Clear
7:35 PM 84.2 °F 44.6 °F 25% 29.83 in 6.0 mi SSW 5.8 mph - N/A   Clear
7:55 PM 80.6 °F 46.4 °F 30% 29.84 in 3.0 mi SSW 4.6 mph - N/A   Clear
8:15 PM 80.6 °F 46.4 °F 30% 29.84 in 3.0 mi South 4.6 mph - N/A   Clear
8:35 PM 80.6 °F 44.6 °F 28% 29.85 in 5.0 mi SW 3.5 mph - N/A   Clear
8:55 PM 78.8 °F 44.6 °F 30% 29.85 in 10.0 mi SW 6.9 mph - N/A   Clear
9:15 PM 78.8 °F 46.4 °F 32% 29.86 in 10.0 mi SSW 3.5 mph - N/A   Clear
9:35 PM 78.8 °F 46.4 °F 32% 29.87 in 10.0 mi SSW 4.6 mph - N/A   Clear
9:55 PM 77.0 °F 44.6 °F 32% 29.87 in 10.0 mi SSW 5.8 mph - N/A   Clear
10:15 PM 75.2 °F 48.2 °F 38% 29.87 in 10.0 mi South 4.6 mph - N/A   Clear
10:35 PM 75.2 °F 48.2 °F 38% 29.88 in 10.0 mi South 5.8 mph - N/A   Clear
10:55 PM 75.2 °F 48.2 °F 38% 29.88 in 10.0 mi SSW 4.6 mph - N/A   Clear
11:15 PM 73.4 °F 48.2 °F 41% 29.88 in 10.0 mi SSW 4.6 mph - N/A   Clear
11:35 PM 73.4 °F 46.4 °F 38% 29.88 in 10.0 mi SW 3.5 mph - N/A   Unknown
11:55 PM 73.4 °F 46.4 °F 38% 29.88 in 10.0 mi Calm Calm - N/A   Clear